Weather History for KEVV - October, 2010

Change the Weather History Date:

Thursday, October 28, 2010

  Actual Average Record
Temperature  
Mean Temperature 51 °F 54 °F  
Max Temperature 61 °F 65 °F 85 °F (1927)
Min Temperature 40 °F 42 °F 24 °F (1976)
Degree Days  
Heating Degree Days 14 11  
Month to date heating degree days 134 221  
Since 1 July heating degree days 144 268  
Cooling Degree Days 0 0  
Month to date cooling degree days 35 28  
Year to date cooling degree days 1902 1394  
Growing Degree Days 3 (Base 50)    
Moisture  
Dew Point 30 °F    
Average Humidity 44    
Maximum Humidity 62    
Minimum Humidity 25    
Precipitation  
Precipitation 0.00 in 0.11 in 1.16 in (1984)
Month to date precipitation 1.06 2.91  
Year to date precipitation 22.52 36.88  
Snow  
Snow 0.00 in 0.00 in 0.00 in (2002)
Month to date snowfall 0.0 0.2  
Since 1 July snowfall 0.0 0.2  
Since 1 September snowfall 0.0 0.2  
Snow Depth 0.00 in    
Sea Level Pressure  
Sea Level Pressure 30.23 in    
Wind  
Wind Speed 9 mph (NW)    
Max Wind Speed 20 mph    
Max Gust Speed 26 mph    
Visibility 10 miles    
Events      
T = Trace of Precipitation, MM = Missing Value Source: NWS Daily Summary

Daily Weather History Graph

Daily Weather History Graph

Search for Another Location

Airport or City:

Trip Planner

Search our weather history database for the weather conditions in past years. The results will help you decide how hot, cold, wet, or windy it might be!

Date:

Astronomy

Oct. 28, 2010 Rise Set
Actual Time 7:11 AM CDT 5:55 PM CDT
Civil Twilight 6:44 AM CDT 6:22 PM CDT
Nautical Twilight 6:13 AM CDT 6:53 PM CDT
Astronomical Twilight 5:42 AM CDT 7:24 PM CDT
Moon 10:28 PM CDT (10/28) 12:29 PM CDT (10/28)
Length of Visible Light 11h 37m
Length of Day
10h 43m
Waning Gibbous, 70% of the Moon is Illuminated
Oct 28
Waning Gibbous
Oct 30
Last Quarter
Nov 5
New
Nov 13
First Quarter
Nov 21
Full

Hourly Weather History & Observations

Time (CDT) Temp. Windchill Dew Point Humidity Pressure Visibility Wind Dir Wind Speed Gust Speed Precip Events Conditions
12:54 AM 61.0 °F - 25.0 °F 25% 30.02 in 10.0 mi WSW 9.2 mph - N/A   Clear
1:54 AM 57.9 °F - 27.0 °F 31% 30.03 in 10.0 mi West 8.1 mph - N/A   Clear
2:54 AM 54.0 °F - 28.0 °F 37% 30.04 in 10.0 mi WSW 9.2 mph - N/A   Clear
3:54 AM 54.0 °F - 28.0 °F 37% 30.06 in 10.0 mi West 8.1 mph - N/A   Clear
4:54 AM 52.0 °F - 28.0 °F 40% 30.08 in 10.0 mi WNW 9.2 mph - N/A   Clear
5:54 AM 50.0 °F - 28.9 °F 44% 30.12 in 10.0 mi NW 8.1 mph - N/A   Clear
6:54 AM 48.0 °F - 30.0 °F 50% 30.15 in 10.0 mi NW 5.8 mph - N/A   Clear
7:54 AM 48.0 °F - 30.0 °F 50% 30.17 in 10.0 mi NNW 4.6 mph - N/A   Clear
8:54 AM 50.0 °F - 30.2 °F 47% 30.22 in 10.0 mi NNW 8.1 mph 18.4 mph N/A   Clear
9:54 AM 50.0 °F - 30.9 °F 48% 30.25 in 10.0 mi WNW 15.0 mph 24.2 mph N/A   Clear
10:54 AM 51.1 °F - 30.9 °F 46% 30.25 in 10.0 mi NNW 9.2 mph - N/A   Clear
11:54 AM 52.0 °F - 30.9 °F 45% 30.27 in 10.0 mi NW 13.8 mph 21.9 mph N/A   Clear
12:54 PM 53.6 °F - 32.0 °F 44% 30.26 in 10.0 mi NW 11.5 mph 21.9 mph N/A   Clear
1:54 PM 53.6 °F - 32.0 °F 44% 30.26 in 10.0 mi NNW 15.0 mph 24.2 mph N/A   Partly Cloudy
2:54 PM 55.0 °F - 32.0 °F 42% 30.27 in 10.0 mi North 12.7 mph - N/A   Scattered Clouds
3:54 PM 52.0 °F - 32.0 °F 47% 30.29 in 10.0 mi NNW 12.7 mph 21.9 mph N/A   Scattered Clouds
4:54 PM 48.9 °F - 32.0 °F 52% 30.30 in 10.0 mi NNW 13.8 mph 20.7 mph N/A   Mostly Cloudy
5:54 PM 48.0 °F - 32.0 °F 54% 30.31 in 10.0 mi NW 8.1 mph - N/A   Mostly Cloudy
6:54 PM 48.2 °F - 32.0 °F 54% 30.33 in 10.0 mi NW 9.2 mph - N/A   Overcast
7:54 PM 48.0 °F - 32.0 °F 54% 30.36 in 10.0 mi NW 6.9 mph - N/A   Overcast
8:54 PM 48.0 °F - 30.9 °F 52% 30.37 in 10.0 mi NNW 8.1 mph - N/A   Overcast
9:54 PM 46.9 °F - 30.0 °F 52% 30.38 in 10.0 mi NW 6.9 mph 19.6 mph N/A   Overcast
10:54 PM 45.0 °F 40.6 °F 30.0 °F 56% 30.38 in 10.0 mi NNW 8.1 mph - N/A   Mostly Cloudy
11:54 PM 43.0 °F - 30.0 °F 60% 30.38 in 10.0 mi Calm Calm - N/A   Clear